星链-34335 (STARLINK-34335)

导读

STARLINK-34335是美国太空探索技术公司(SpaceX)星链互联网星座中的一颗卫星,于2025年6月13日发射入轨,归属美国所有。星链项目旨在构建全球卫星互联网星座,为全球提供高速互联网接入服务,STARLINK-34335的入轨进一步扩充了星链星座的规模,提升了星座的服务覆盖能力与稳定性。

基本信息
目录编号:
64362
目录名称:
STARLINK-34335
国际标识:
2025-126U
轨道中心:
EARTH
卫星名称:
星链-34335
卫星全名:
星链-34335 (STARLINK-34335)
卫星状态:
在轨 (已飞行365 天)
发射日期:
2025-06-13 UTC
国别 :
美国 (US)
星等 :
--
轨道信息
数据来源 国际轨道数据 AOE轨道数据
星历时间 2026-06-13T16:22:14+0800
15小时前
查看轨道信息
2026-06-12T17:00:00+0800
1天前
查看轨道信息
半长轴 6950.149km 6950.166km
偏心率 0.000385 0.0003946
轨道倾角 69.999° 69.999°
近地点辐角 264.787° 266.837°
升交点赤经 153.146° 155.601°
平近点角 95.285° 242.187°
近地点 569.336km 569.286km
远地点 574.688km 574.772km
周期 96.106分钟 96.106分钟
每日圈数 14.983443 14.98339
详细信息
固有亮度:
5
最大亮度:
2.5
卫星平台:
Starlink V1.0
覆盖范围:
全球
运营商:
太空探索技术公司
运营商所在国:
美国
制造商(研发单位):
太空探索技术公司
制造商所在国:
美国
使用方式:
暂无
卫星简介
Starlink 计划是 SpaceX 推出的全球卫星互联网项目,通过发射低轨道卫星,为全球尤其是偏远地区提供高速、低延迟的互联网服务。自 2019 年起,Starlink 已部署数千颗卫星,旨在缩小全球数字鸿沟,推动互联网普及。该项目还为军事、航空等行业提供通信支持,带来广泛经济效益。
2D轨道图
3D轨道图
轨道高度分析图
轨道倾角分析图
轨道综合分析图
查看轨道综合分析图